FW2111 Weather Reports


Display with metric or nautical units.
time (UTC)temp
F
wind
direction
speed
MPH
gust
MPH
rain 1hr
in
rain 24hr
in
rain mn
in
humidity
%
barometer
mb
20260906082038 62 48 0.0 2.0 0.00 0.01 0.00 77 1020.8
20260906081807 62 48 0.0 3.0 0.00 0.01 0.00 77 1020.8
20260906081008 62 48 1.0 3.0 0.00 0.01 0.00 78 1021.0
20260906080505 62 49 1.0 3.0 0.00 0.01 0.00 78 1021.0
20260906075939 62 49 1.0 3.0 0.00 0.01 0.00 78 1021.2
20260906075436 62 49 0.0 2.0 0.00 0.01 0.00 78 1021.1
20260906074911 63 49 1.0 2.0 0.00 0.01 0.00 78 1021.2
20260906074346 63 49 1.0 3.0 0.00 0.01 0.00 78 1021.3
20260906074342 63 49 1.0 3.0 0.00 0.01 0.00 78 1021.1
20260906073313 63 49 1.0 3.0 0.00 0.01 0.00 78 1021.2
20260906073018 63 52 0.0 3.0 0.00 0.01 0.00 78 1021.3
20260906072245 63 52 1.0 3.0 0.00 0.01 0.00 78 1021.2
20260906071741 63 52 2.0 5.0 0.00 0.01 0.00 79 1021.2
20260906071216 63 52 2.0 5.0 0.00 0.01 0.00 79 1021.3
20260906070655 63 28 2.0 4.0 0.00 0.01 0.00 79 1021.1
20260906070140 63 28 1.0 3.0 0.00 0.01 0.00 79 1021.0
20260906065638 63 30 1.0 3.0 0.00 0.01 0.00 79 1020.7
20260906065345 63 33 0.0 3.0 0.00 0.01 0.00 79 1020.7
20260906064843 63 34 1.0 3.0 0.00 0.01 0.00 80 1020.8
20260906064109 62 34 1.0 3.0 0.00 0.01 0.00 80 1020.8
20260906063610 62 22 1.0 3.0 0.00 0.01 0.00 80 1021.0
20260906063108 62 15 1.0 3.0 0.00 0.01 0.00 80 1020.9
20260906062605 62 16 1.0 2.0 0.00 0.01 0.00 79 1020.6
20260906062103 62 16 1.0 2.0 0.00 0.01 0.00 79 1020.6
20260906061602 63 16 1.0 3.0 0.00 0.01 0.00 79 1020.7
20260906061102 63 16 1.0 3.0 0.00 0.01 0.00 78 1020.8
20260906060602 63 17 1.0 3.0 0.00 0.01 0.00 78 1021.0
20260906060051 63 18 1.0 3.0 0.00 0.01 0.00 78 1020.8
20260906055550 64 19 1.0 4.0 0.00 0.01 0.00 78 1020.7
20260906055033 63 19 1.0 4.0 0.00 0.01 0.00 78 1020.8
20260906054535 63 21 2.0 4.0 0.00 0.01 0.00 78 1020.7
20260906054020 64 23 3.0 5.0 0.00 0.01 0.00 78 1020.8
20260906053518 64 27 2.0 5.0 0.00 0.01 0.00 78 1020.8
20260906052952 64 12 2.0 4.0 0.00 0.01 0.00 78 1020.8
20260906052425 64 38 1.0 3.0 0.00 0.01 0.00 78 1020.9
20260906052133 64 37 1.0 3.0 0.00 0.01 0.00 78 1020.9
20260906051335 64 37 1.0 3.0 0.00 0.01 0.00 78 1020.8
20260906050817 64 15 2.0 4.0 0.00 0.01 0.00 78 1021.0
20260906050316 64 40 2.0 4.0 0.00 0.01 0.00 78 1021.1
20260906045752 64 24 2.0 4.0 0.00 0.01 0.01 77 1021.0
20260906045231 64 32 2.0 4.0 0.00 0.01 0.01 77 1021.1
20260906044730 64 33 1.0 4.0 0.00 0.01 0.01 77 1021.1
20260906044707 64 36 1.0 3.0 0.00 0.01 0.01 77 1021.1
20260906043641 64 36 1.0 3.0 0.00 0.01 0.01 77 1021.0
20260906043141 64 30 1.0 4.0 0.00 0.01 0.01 77 1021.1
20260906042638 64 28 1.0 4.0 0.00 0.01 0.01 77 1021.1
20260906042413 64 27 1.0 4.0 0.00 0.01 0.01 77 1021.2
20260906041616 64 30 2.0 4.0 0.00 0.01 0.01 77 1021.2
20260906041114 64 28 1.0 3.0 0.00 0.01 0.01 77 1021.3
20260906040556 64 44 1.0 4.0 0.00 0.01 0.01 77 1021.2
20260906040055 64 39 2.0 5.0 0.00 0.01 0.01 76 1021.1
20260906035546 64 39 2.0 5.0 0.00 0.01 0.01 76 1021.1
20260906035048 64 5 2.0 5.0 0.00 0.01 0.01 76 1021.0
20260906034528 64 24 2.0 5.0 0.00 0.01 0.01 76 1021.0
20260906034023 64 34 2.0 7.0 0.00 0.01 0.01 75 1021.1
20260906033738 64 42 2.0 7.0 0.00 0.01 0.01 75 1020.9
20260906033008 64 67 2.0 8.0 0.00 0.01 0.01 75 1020.8
20260906032443 65 98 3.0 8.0 0.00 0.01 0.01 75 1020.7
20260906031934 65 82 3.0 8.0 0.00 0.01 0.01 75 1020.8
20260906031434 65 84 3.0 6.0 0.00 0.01 0.01 75 1020.9
20260906030934 65 69 2.0 5.0 0.00 0.01 0.01 75 1020.9
20260906030413 65 74 3.0 6.0 0.00 0.01 0.01 75 1020.9
20260906025911 65 69 3.0 8.0 0.00 0.01 0.01 75 1020.8
20260906025412 65 58 3.0 8.0 0.00 0.01 0.01 75 1020.5
20260906025119 65 53 2.0 7.0 0.00 0.01 0.01 76 1020.5
20260906024348 65 53 2.0 5.0 0.00 0.01 0.01 76 1020.4
20260906023825 64 56 2.0 5.0 0.00 0.01 0.01 76 1020.4
20260906023326 64 69 2.0 6.0 0.00 0.01 0.01 77 1020.1
20260906022826 64 69 2.0 6.0 0.00 0.01 0.01 77 1020.1
20260906022300 64 83 3.0 7.0 0.00 0.01 0.01 77 1020.0
20260906021801 64 49 3.0 7.0 0.00 0.01 0.01 78 1019.9
20260906021235 64 64 2.0 6.0 0.00 0.01 0.01 78 1019.9
20260906020711 64 71 2.0 6.0 0.00 0.01 0.01 78 1020.0
20260906020209 64 32 2.0 6.0 0.00 0.01 0.01 78 1020.0
20260906015707 64 29 3.0 8.0 0.00 0.01 0.01 79 1020.0
20260906015143 64 69 3.0 9.0 0.00 0.01 0.01 79 1019.9
20260906014617 64 58 3.0 9.0 0.00 0.01 0.01 79 1019.6
20260906014051 64 39 2.0 5.0 0.00 0.01 0.01 79 1019.6
20260906013546 64 78 2.0 6.0 0.00 0.01 0.01 79 1019.5
20260906013041 64 57 3.0 6.0 0.00 0.01 0.01 79 1019.6
20260906012517 64 80 3.0 7.0 0.00 0.01 0.01 79 1019.5
20260906011950 64 80 3.0 7.0 0.00 0.01 0.01 79 1019.6
20260906011425 64 64 3.0 7.0 0.00 0.01 0.01 79 1019.7
20260906010920 64 72 3.0 8.0 0.00 0.01 0.01 79 1019.7
20260906010417 64 55 2.0 8.0 0.00 0.01 0.01 79 1019.9
20260906005851 64 55 3.0 6.0 0.00 0.01 0.01 79 1019.7
20260906005323 63 61 4.0 9.0 0.00 0.01 0.01 79 1019.5
20260906004821 63 48 4.0 9.0 0.00 0.01 0.01 79 1019.5
20260906004256 63 61 3.0 7.0 0.00 0.01 0.01 79 1019.3
20260906004001 63 63 3.0 6.0 0.00 0.01 0.01 79 1019.3
20260906003201 63 79 3.0 7.0 0.00 0.01 0.01 80 1019.3
20260906002659 63 18 2.0 5.0 0.00 0.01 0.01 80 1019.4
20260906002133 63 117 3.0 7.0 0.00 0.01 0.01 80 1019.4
20260906001605 63 63 3.0 11.0 0.00 0.01 0.01 80 1019.5
20260906001102 63 67 3.0 11.0 0.00 0.01 0.01 80 1019.7
20260906000537 63 67 4.0 7.0 0.00 0.01 0.01 80 1019.6
20260906000033 63 103 4.0 9.0 0.00 0.01 0.01 80 1019.6
20260905235531 64 82 4.0 9.0 0.00 0.01 0.01 79 1019.7
20260905235004 64 69 4.0 8.0 0.00 0.01 0.01 80 1019.9
20260905234501 64 74 4.0 7.0 0.00 0.01 0.01 79 1019.9
20260905234450 64 84 4.0 9.0 0.00 0.01 0.01 79 1020.1
20260905233451 64 74 4.0 9.0 0.00 0.01 0.01 79 1020.3
20260905232925 64 42 4.0 9.0 0.00 0.01 0.01 79 1020.3
20260905232420 64 96 4.0 8.0 0.00 0.01 0.01 79 1020.0
20260905231855 64 55 4.0 9.0 0.00 0.01 0.01 79 1020.2
20260905231330 64 82 4.0 8.0 0.00 0.01 0.01 79 1020.3
20260905230825 64 112 4.0 9.0 0.00 0.01 0.01 79 1020.3
20260905230323 64 55 3.0 8.0 0.00 0.01 0.01 79 1020.3
20260905225811 65 68 3.0 8.0 0.00 0.01 0.01 79 1020.2
20260905225309 65 80 4.0 8.0 0.00 0.01 0.01 79 1020.2
20260905224742 65 67 4.0 8.0 0.00 0.01 0.01 79 1020.2
20260905224239 65 96 3.0 8.0 0.00 0.01 0.01 79 1020.1
20260905223736 65 88 4.0 8.0 0.00 0.01 0.01 79 1020.2
20260905223505 65 96 4.0 8.0 0.00 0.01 0.01 79 1020.3
20260905222731 65 67 4.0 8.0 0.00 0.01 0.01 78 1020.3
20260905222204 65 96 3.0 8.0 0.00 0.01 0.01 78 1020.4
20260905221701 65 97 3.0 7.0 0.00 0.01 0.01 79 1020.5
20260905221140 65 97 3.0 7.0 0.00 0.01 0.01 79 1020.3
20260905220603 65 92 3.0 7.0 0.00 0.01 0.01 79 1020.3
20260905220100 64 64 4.0 7.0 0.00 0.01 0.01 79 1020.3
20260905215535 64 108 3.0 9.0 0.00 0.01 0.01 79 1020.4
20260905215007 64 103 4.0 9.0 0.00 0.01 0.01 79 1020.5
20260905214505 64 96 3.0 7.0 0.00 0.01 0.01 79 1020.5
20260905213939 64 78 3.0 7.0 0.00 0.01 0.01 79 1020.6
20260905213411 64 107 3.0 6.0 0.00 0.01 0.01 80 1020.6
20260905212909 64 104 3.0 7.0 0.00 0.01 0.01 79 1020.8
20260905212343 64 134 3.0 7.0 0.00 0.01 0.01 79 1020.7
20260905211837 64 101 3.0 7.0 0.00 0.01 0.01 79 1020.8
20260905211334 64 76 4.0 10.0 0.00 0.01 0.01 80 1020.9
20260905210808 64 76 4.0 10.0 0.00 0.01 0.01 79 1020.8
20260905210243 64 116 4.0 9.0 0.00 0.01 0.01 79 1021.0
20260905210217 64 107 3.0 6.0 0.00 0.01 0.01 79 1020.8
20260905205211 64 107 2.0 7.0 0.00 0.01 0.01 79 1020.9
20260905204647 64 131 2.0 7.0 0.00 0.01 0.01 79 1020.9
20260905204350 64 171 3.0 9.0 0.00 0.01 0.01 79 1021.0
20260905203617 64 130 4.0 9.0 0.00 0.01 0.01 79 1020.9
20260905203050 64 107 3.0 8.0 0.00 0.01 0.01 79 1020.8
20260905202547 64 131 3.0 7.0 0.00 0.01 0.01 79 1020.7
20260905202021 64 97 3.0 7.0 0.00 0.01 0.01 79 1020.9
20260905201454 65 134 4.0 11.0 0.00 0.01 0.01 78 1021.0
20260905201221 65 64 3.0 11.0 0.00 0.01 0.01 78 1021.0
20260905200658 65 127 2.0 10.0 0.00 0.01 0.01 77 1021.1
20260905195900 65 90 5.0 12.0 0.00 0.01 0.01 78 1020.9
20260905195331 65 53 6.0 12.0 0.00 0.01 0.01 78 1020.8
20260905194817 66 69 5.0 11.0 0.00 0.01 0.01 77 1020.8
20260905194549 66 66 6.0 13.0 0.00 0.01 0.01 77 1020.8
20260905193808 66 85 5.0 13.0 0.00 0.01 0.01 76 1020.8
20260905193311 67 130 4.0 11.0 0.00 0.01 0.01 77 1020.8
20260905192743 66 89 5.0 13.0 0.00 0.01 0.01 78 1020.9
20260905192241 65 74 7.0 14.0 0.00 0.01 0.01 78 1020.9
20260905191720 66 74 6.0 14.0 0.00 0.01 0.01 77 1020.8
20260905191221 66 77 5.0 11.0 0.00 0.01 0.01 77 1020.9
20260905190658 66 82 4.0 10.0 0.00 0.01 0.01 78 1020.9
20260905190156 66 103 4.0 9.0 0.00 0.01 0.01 78 1020.8
20260905185909 66 64 4.0 9.0 0.00 0.01 0.01 79 1020.9
20260905185409 65 92 4.0 9.0 0.00 0.01 0.01 79 1021.0
20260905184640 65 111 5.0 10.0 0.00 0.01 0.01 79 1021.0
20260905184118 65 81 5.0 10.0 0.00 0.01 0.01 80 1020.9
20260905183619 65 95 4.0 12.0 0.00 0.01 0.01 80 1020.8
20260905183051 65 59 5.0 11.0 0.00 0.01 0.01 80 1020.8
20260905182549 64 85 5.0 11.0 0.00 0.01 0.01 80 1020.8
20260905182033 65 103 5.0 11.0 0.00 0.01 0.01 80 1020.9
20260905181534 65 103 5.0 11.0 0.00 0.01 0.01 80 1020.9
20260905181034 65 127 6.0 10.0 0.00 0.01 0.01 80 1021.0
20260905180520 65 94 5.0 10.0 0.00 0.01 0.01 81 1021.0
20260905180022 65 118 4.0 10.0 0.00 0.01 0.01 82 1020.9
20260905175507 64 94 3.0 6.0 0.00 0.01 0.01 82 1020.9
20260905175004 64 110 3.0 8.0 0.00 0.01 0.01 83 1021.0
20260905174506 64 111 3.0 8.0 0.00 0.01 0.01 83 1021.2
20260905174000 64 99 3.0 7.0 0.00 0.01 0.01 83 1021.2
20260905173709 64 126 3.0 7.0 0.00 0.01 0.01 83 1021.1
20260905173210 64 109 3.0 6.0 0.00 0.01 0.01 83 1021.1
20260905172408 63 101 3.0 7.0 0.00 0.01 0.01 83 1021.2
20260905171846 63 72 4.0 10.0 0.00 0.01 0.01 83 1021.2
20260905171317 63 94 4.0 10.0 0.00 0.01 0.01 83 1021.2
20260905170753 63 74 3.0 9.0 0.00 0.01 0.01 83 1021.2
20260905170231 63 92 3.0 9.0 0.00 0.01 0.01 84 1021.2
20260905165722 63 104 4.0 9.0 0.00 0.01 0.01 84 1021.2
20260905165219 63 90 5.0 9.0 0.00 0.01 0.01 84 1021.4
20260905164657 63 117 5.0 9.0 0.00 0.01 0.01 84 1021.3
20260905164129 63 117 5.0 9.0 0.00 0.01 0.01 84 1021.3
20260905163626 63 78 5.0 9.0 0.00 0.01 0.01 84 1021.4
20260905163102 63 89 4.0 9.0 0.00 0.01 0.01 84 1021.4
20260905162535 63 101 4.0 10.0 0.00 0.01 0.01 84 1021.4
20260905162008 62 78 4.0 10.0 0.00 0.01 0.01 84 1021.4
20260905161441 62 76 5.0 10.0 0.00 0.01 0.01 84 1021.5
20260905161210 63 98 4.0 10.0 0.00 0.01 0.01 84 1021.4
20260905160411 63 59 4.0 8.0 0.00 0.01 0.01 84 1021.4
20260905160118 62 108 4.0 8.0 0.00 0.01 0.01 84 1021.4
20260905155758 62 88 3.0 7.0 0.00 0.01 0.01 84 1021.3
20260905155402 62 109 3.0 7.0 0.00 0.01 0.01 84 1021.4
20260905154228 63 104 3.0 6.0 0.00 0.01 0.01 84 1021.3
20260905153701 63 93 3.0 7.0 0.00 0.01 0.01 84 1021.3
20260905153159 63 89 3.0 6.0 0.00 0.01 0.01 84 1021.2
20260905152654 63 98 3.0 6.0 0.00 0.02 0.01 84 1021.1
20260905152127 63 99 2.0 7.0 0.00 0.02 0.01 84 1021.1
20260905151602 63 126 2.0 6.0 0.00 0.02 0.01 84 1021.0
20260905151041 63 101 3.0 8.0 0.00 0.02 0.01 84 1021.0
20260905150540 63 101 3.0 8.0 0.00 0.02 0.01 84 1020.8
20260905150029 63 87 2.0 6.0 0.00 0.02 0.01 84 1020.8
20260905145504 63 90 2.0 7.0 0.00 0.02 0.01 84 1020.7
20260905145210 63 92 3.0 8.0 0.00 0.02 0.01 84 1020.6
20260905144410 63 91 3.0 10.0 0.00 0.02 0.01 84 1020.5
20260905143912 63 93 2.0 8.0 0.00 0.02 0.01 84 1020.6
20260905143401 63 92 3.0 10.0 0.00 0.02 0.01 84 1020.5
20260905142859 63 74 4.0 10.0 0.00 0.02 0.01 84 1020.4
20260905142330 63 49 3.0 9.0 0.01 0.02 0.01 84 1020.3
20260905141828 63 65 3.0 9.0 0.01 0.02 0.01 84 1020.4
20260905141534 63 60 2.0 9.0 0.01 0.03 0.01 84 1020.3
20260905140734 62 107 2.0 7.0 0.01 0.03 0.01 84 1020.3
20260905140230 62 113 3.0 8.0 0.01 0.03 0.01 84 1020.2
20260905135728 62 75 3.0 8.0 0.01 0.03 0.01 84 1020.2
20260905135201 62 67 2.0 7.0 0.01 0.03 0.01 84 1020.3
20260905134658 62 71 2.0 5.0 0.01 0.03 0.01 84 1020.4
20260905134154 62 56 2.0 7.0 0.01 0.03 0.01 84 1020.3
20260905133652 62 46 2.0 7.0 0.01 0.03 0.01 84 1020.2
20260905133356 62 68 2.0 8.0 0.01 0.03 0.01 84 1020.0
20260905132622 62 71 2.0 8.0 0.01 0.03 0.01 84 1020.2
20260905132114 62 59 3.0 6.0 0.00 0.02 0.00 84 1020.3
20260905131612 62 55 2.0 5.0 0.00 0.02 0.00 84 1020.3
20260905131045 62 17 2.0 4.0 0.00 0.02 0.00 84 1020.5
20260905130815 62 80 1.0 4.0 0.00 0.02 0.00 84 1020.6
20260905130300 62 109 1.0 4.0 0.00 0.02 0.00 84 1020.6
20260905125757 62 109 2.0 4.0 0.00 0.02 0.00 84 1020.5
20260905125030 61 75 2.0 4.0 0.00 0.02 0.00 84 1020.3
20260905124510 62 102 1.0 6.0 0.00 0.02 0.00 84 1020.2
20260905123934 62 86 1.0 3.0 0.00 0.02 0.00 84 1020.2
20260905123702 62 87 1.0 3.0 0.00 0.02 0.00 84 1020.1
20260905123547 62 88 1.0 3.0 0.00 0.02 0.00 83 1020.3
20260905122653 62 63 0.0 3.0 0.00 0.02 0.00 83 1020.2
20260905121919 62 63 0.0 3.0 0.00 0.02 0.00 83 1020.0
20260905121352 62 49 1.0 2.0 0.00 0.02 0.00 83 1019.7
20260905120849 62 49 1.0 2.0 0.00 0.02 0.00 83 1019.6
20260905120327 62 46 1.0 4.0 0.00 0.02 0.00 83 1019.5
20260905120323 61 47 0.0 3.0 0.00 0.02 0.00 83 1019.7
20260905115525 61 46 1.0 5.0 0.00 0.02 0.00 83 1019.2
20260905114753 61 42 2.0 6.0 0.00 0.02 0.00 83 1019.2
20260905114516 62 70 2.0 6.0 0.00 0.02 0.00 83 1019.0
20260905113743 62 67 1.0 5.0 0.00 0.02 0.00 83 1019.0
20260905113245 61 77 1.0 5.0 0.00 0.02 0.00 83 1019.0
20260905112710 62 65 2.0 6.0 0.00 0.02 0.00 83 1018.9
20260905112143 62 84 2.0 6.0 0.00 0.02 0.00 83 1018.7
20260905111640 62 91 1.0 5.0 0.00 0.02 0.00 83 1018.7
20260905111112 62 49 1.0 5.0 0.00 0.02 0.00 83 1018.7
20260905110610 62 74 2.0 5.0 0.00 0.02 0.00 83 1018.7
20260905110042 62 44 2.0 5.0 0.00 0.02 0.00 83 1018.8
20260905105540 61 37 2.0 5.0 0.00 0.02 0.00 83 1018.8
20260905105017 62 53 2.0 5.0 0.00 0.02 0.00 83 1018.8
20260905104517 61 43 1.0 5.0 0.00 0.02 0.00 83 1018.8
20260905103953 62 41 1.0 5.0 0.00 0.02 0.00 83 1018.9
20260905103452 62 30 1.0 5.0 0.00 0.02 0.00 83 1018.9
20260905102923 62 39 1.0 4.0 0.00 0.02 0.00 83 1018.9
20260905102420 62 44 2.0 7.0 0.00 0.02 0.00 83 1018.9
20260905101922 62 67 2.0 7.0 0.00 0.02 0.00 83 1019.1
20260905101357 62 65 2.0 5.0 0.00 0.02 0.00 83 1019.0
20260905100836 62 46 2.0 5.0 0.00 0.02 0.00 83 1019.0
20260905100339 62 58 1.0 5.0 0.00 0.02 0.00 83 1019.1
20260905095808 62 53 1.0 6.0 0.00 0.02 0.00 83 1019.0
20260905095306 62 44 2.0 5.0 0.00 0.02 0.00 83 1019.1
20260905095022 62 62 2.0 6.0 0.00 0.02 0.00 83 1018.9
20260905094251 62 32 2.0 6.0 0.00 0.02 0.00 83 1019.1
20260905093730 62 71 2.0 7.0 0.00 0.02 0.00 83 1019.1
20260905093216 62 71 3.0 9.0 0.00 0.02 0.00 83 1019.1
20260905092705 62 63 3.0 9.0 0.00 0.02 0.00 83 1019.1
20260905092204 62 80 2.0 7.0 0.00 0.02 0.00 83 1019.1
20260905091704 62 78 1.0 6.0 0.00 0.02 0.00 83 1019.1
20260905091413 62 84 2.0 7.0 0.00 0.02 0.00 83 1019.1
20260905090619 62 60 3.0 7.0 0.00 0.02 0.00 83 1019.2
20260905090105 62 60 3.0 5.0 0.00 0.02 0.00 83 1019.1
20260905090100 62 63 3.0 7.0 0.00 0.02 0.00 83 1019.2
20260905085048 62 84 2.0 7.0 0.00 0.02 0.00 84 1019.2
20260905084551 62 84 2.0 7.0 0.00 0.02 0.00 84 1019.1
20260905084036 62 38 3.0 6.0 0.00 0.02 0.00 84 1019.2
20260905083538 62 65 2.0 7.0 0.00 0.02 0.00 84 1019.1
20260905083034 62 90 2.0 7.0 0.00 0.02 0.00 84 1019.2
20260905082536 62 50 2.0 6.0 0.00 0.02 0.00 84 1019.2